PEGASUS DEB, 24378

Orbit data source: Space-Track

PEGASUS DEB, 24378 is space debris in LEO originally from a launch on Thu, 19 May 1994 UTC launched from the Air Force Western Test Range (AFWTR). Debris objects in space refer to the collection of defunct objects orbiting the Earth. Examples of debris include non-operational satellites, rocket bodies, and fragments generated from explosions, collisions, or faulty payload assembly.

Loading next visibility...
Identifier
24378, 1994-029QF
Orbit
LEO
Country
Flag of USUS
Related business
Manufacturer
Unknown
Mission
Spacecraft
Bus & Motor
Unknown
Mass
Unknown
Launch date (UTC)
1994-05-19 (32 years ago)
Launch vehicle
Unknown
Launch site
Air Force Western Test Range (AFWTR)
Object type
Payload
Rocket body
Debris
Shape & HBR
Unknown shape, 0.1 m
Radar Cross Section
Medium (>0.1 m² and <1 m²)

Expand to show TLE details & history
Last TLE update: 1 day ago

TLE from 1 day ago
0 PEGASUS DEB
1 24378U 94029QF  26262.96722295  .00000452  00000-0  76951-4 0  9991
2 24378  82.0318 158.6271 0158052 264.1345  94.1821 14.59285955712484
Epoch: 2026-09-19T23:12Z
TLE epoch observation values (Epoch: 2026-09-19T23:12:48.062Z)
Latitude
-0.00003°
Longitude
171.55867°
Altitude
708.382 km
Speed
7.496 km/s
True Right ascension
10h 34m 30s
True Declination
0° 00' 00"
Sunlit
Object was in daylight at epoch
Visualization orbit readout
Latitude
Unknown
Longitude
Unknown
Altitude
Unknown
Speed
Unknown
Apparent Right ascension
Unknown
Apparent Declination
Unknown
Sunlit
N/A
Visualization observer readout
Local Sidereal Time
21:06:47
Azimuth
Unknown
Elevation
Unknown
Doppler factor
Unknown
Orbital elements
Apogee altitude
804.305 km
Perigee altitude
580.797 km
Semi-major axis
7,070.688 km
Eccentricity
0.01581
Inclination
82.0318°
RAAN
158.6271°
Arg. of periapsis
264.1345°
True anomaly
95.98552°
Mean anomaly
94.1821°
Eccentric anomaly
95.08411°
Mean motion
3.65049 °/min
Orbital period
98.62 mins
BSTAR
0.000076951
Loading maneuver chart data...
Computing Atmospheric mass density...

Documentation

Showing up to 5 results
|